San Angelo, TX

6:19 PM CDT on June 27, 2017 (GMT -0500)
San Angelo Regional-Mathis

Weather History for KSJT - May, 2014

Change the Weather History Date:

Monday, May 5, 2014

  Actual Average Record
Temperature  
Mean Temperature 85 °F 72 °F  
Max Temperature 103 °F 85 °F 103 °F (1984)
Min Temperature 66 °F 58 °F 39 °F (1945)
Degree Days  
Heating Degree Days 0 1  
Month to date heating degree days 7 5  
Since 1 July heating degree days 2476 2311  
Cooling Degree Days 20 7  
Month to date cooling degree days 40 34  
Year to date cooling degree days 293 190  
Growing Degree Days 34 (Base 50)    
Moisture  
Dew Point 43 °F    
Average Humidity 35    
Maximum Humidity 63    
Minimum Humidity 7    
Precipitation  
Precipitation 0.00 in 0.07 in 1.18 in (1993)
Month to date precipitation 0.00 0.35  
Year to date precipitation 0.52 5.55  
Sea Level Pressure  
Sea Level Pressure 29.78 in    
Wind  
Wind Speed 13 mph (SSW)    
Max Wind Speed 22 mph    
Max Gust Speed 30 mph    
Visibility 10 miles    
Events      
T = Trace of Precipitation, MM = Missing Value Source: NWS Daily Summary

Daily Weather History Graph

Daily Weather History Graph

Search for Another Location

Airport or City:

Trip Planner

Search our weather history database for the weather conditions in past years. The results will help you decide how hot, cold, wet, or windy it might be!

Date:

Astronomy

May. 05, 2014 Rise Set
Actual Time 6:53 AM CDT 8:24 PM CDT
Civil Twilight 6:27 AM CDT 8:50 PM CDT
Nautical Twilight 5:56 AM CDT 9:21 PM CDT
Astronomical Twilight 5:23 AM CDT 9:54 PM CDT
Moon 12:13 PM CDT (5/5) 1:10 AM CDT (5/5)
Length of Visible Light 14h 22m
Length of Day
13h 30m
Waxing Crescent, 37% of the Moon is Illuminated
May 5
Waxing Crescent
May 6
First Quarter
May 14
Full
May 21
Last Quarter
May 28
New

Hourly Weather History & Observations

Time (CDT) Temp. Heat Index Dew Point Humidity Pressure Visibility Wind Dir Wind Speed Gust Speed Precip Events Conditions
12:51 AM 75.9 °F - 33.1 °F 21% 29.86 in 10.0 mi South 16.1 mph - N/A   Clear
1:51 AM 73.9 °F - 35.1 °F 24% 29.86 in 10.0 mi South 17.3 mph 25.3 mph N/A   Clear
2:51 AM 72.0 °F - 39.0 °F 30% 29.85 in 10.0 mi South 15.0 mph - N/A   Clear
4:51 AM 68.0 °F - 48.9 °F 50% 29.85 in 10.0 mi South 10.4 mph 23.0 mph N/A   Clear
5:51 AM 68.0 °F - 53.1 °F 59% 29.84 in 10.0 mi South 15.0 mph - N/A   Clear
6:51 AM 66.0 °F - 53.1 °F 63% 29.85 in 10.0 mi South 13.8 mph - N/A   Clear
7:51 AM 66.9 °F - 54.0 °F 63% 29.87 in 10.0 mi SSW 15.0 mph - N/A   Clear
8:51 AM 72.0 °F - 55.0 °F 55% 29.87 in 10.0 mi SSW 17.3 mph 21.9 mph N/A   Clear
9:51 AM 78.1 °F - 54.0 °F 43% 29.87 in 10.0 mi SW 11.5 mph - N/A   Clear
10:51 AM 82.9 °F 81.8 °F 53.1 °F 36% 29.86 in 10.0 mi SW 11.5 mph - N/A   Clear
11:51 AM 87.1 °F - 51.1 °F 29% 29.84 in 10.0 mi South 9.2 mph 21.9 mph N/A   Clear
12:51 PM 91.9 °F - 46.9 °F 21% 29.82 in 10.0 mi WSW 12.7 mph - N/A   Clear
1:51 PM 96.1 °F - 42.1 °F 15% 29.78 in 10.0 mi SSW 9.2 mph - N/A   Clear
2:51 PM 99.0 °F - 37.0 °F 12% 29.74 in 10.0 mi Calm Calm - N/A   Clear
3:51 PM 102.0 °F - 28.9 °F 8% 29.70 in 10.0 mi North - - N/A   Clear
4:51 PM 100.9 °F - 28.0 °F 8% 29.68 in 10.0 mi Variable 4.6 mph 16.1 mph N/A   Clear
5:51 PM 102.0 °F - 30.0 °F 8% 29.65 in 10.0 mi SW 16.1 mph - N/A   Clear
6:51 PM 99.0 °F - 33.1 °F 10% 29.65 in 10.0 mi South 15.0 mph 25.3 mph N/A   Clear
7:51 PM 96.1 °F - 32.0 °F 10% 29.65 in 10.0 mi South 15.0 mph - N/A   Clear
8:51 PM 91.0 °F - 37.0 °F 15% 29.67 in 10.0 mi SSW 16.1 mph - N/A   Clear
9:51 PM 87.1 °F - 42.1 °F 21% 29.69 in 10.0 mi South 11.5 mph - N/A   Clear
10:51 PM 86.0 °F - 46.9 °F 26% 29.70 in 10.0 mi South 16.1 mph 26.5 mph N/A   Clear
11:51 PM 82.9 °F - 51.1 °F 33% 29.70 in 10.0 mi South 20.7 mph 26.5 mph N/A   Clear